• In Romania
  • List of Countries
  • For 7 days
  • Water Temperature
  • Satellite Maps
  • Weather Map
  • Weather Widgets
  • user-avatar
    Login

    Hourly Weather Malanje

    Today, 28 May, Sunday

    Time Temperature Precipitation Wind Pressure Humidity
    00:00 +19°C° 0 mm 2 mps 666 mmHg 88%
    01:00 +18°C° 0 mm 2 mps 666 mmHg 91%
    02:00 +18°C° 0.2 mm 2 mps 666 mmHg 92%
    03:00 +19°C° 0.2 mm 1 mps 666 mmHg 94%
    04:00 +18°C° 0.2 mm 1 mps 666 mmHg 95%
    05:00 +19°C° 0.1 mm 1 mps 666 mmHg 93%
    06:00 +19°C° 0.1 mm 1 mps 667 mmHg 92%
    07:00 +20°C° 0.1 mm 1 mps 667 mmHg 90%
    08:00 +22°C° 0.2 mm 1 mps 668 mmHg 79%
    09:00 +25°C° 0.2 mm 1 mps 669 mmHg 69%
    10:00 +27°C° 0.2 mm 1 mps 669 mmHg 58%
    11:00 +28°C° 0.1 mm 1 mps 669 mmHg 52%
    12:00 +30°C° 0.1 mm 2 mps 669 mmHg 46%
    13:00 +31°C° 0.1 mm 2 mps 668 mmHg 39%
    14:00 +30°C° 0.1 mm 1 mps 668 mmHg 41%
    15:00 +30°C° 0.1 mm 1 mps 667 mmHg 42%
    16:00 +30°C° 0.1 mm 1 mps 667 mmHg 43%
    17:00 +28°C° 0.1 mm 1 mps 666 mmHg 49%
    18:00 +26°C° 0.1 mm 1 mps 666 mmHg 54%
    19:00 +24°C° 0.1 mm 1 mps 666 mmHg 60%
    20:00 +23°C° 0 mm 1 mps 666 mmHg 62%
    21:00 +22°C° 0 mm 1 mps 666 mmHg 65%
    22:00 +21°C° 0 mm 1 mps 666 mmHg 68%
    23:00 +21°C° 0 mm 1 mps 666 mmHg 70%

    Tomorrow, 29 May, Monday

    Time Temperature Precipitation Wind Pressure Humidity
    00:00 +21°C° 0 mm 1 mps 666 mmHg 72%
    01:00 +20°C° 0 mm 1 mps 666 mmHg 74%
    02:00 +20°C° 0 mm 1 mps 666 mmHg 77%
    03:00 +19°C° 0 mm 1 mps 665 mmHg 80%
    04:00 +19°C° 0 mm 1 mps 665 mmHg 83%
    05:00 +20°C° 0 mm 1 mps 666 mmHg 81%
    06:00 +20°C° 0 mm 1 mps 666 mmHg 78%
    07:00 +21°C° 0 mm 1 mps 667 mmHg 75%
    08:00 +24°C° 0 mm 1 mps 668 mmHg 65%
    09:00 +26°C° 0 mm 1 mps 668 mmHg 55%
    10:00 +29°C° 0 mm 2 mps 669 mmHg 45%
    11:00 +30°C° 0 mm 2 mps 669 mmHg 41%
    12:00 +31°C° 0 mm 2 mps 668 mmHg 37%
    13:00 +33°C° 0 mm 3 mps 668 mmHg 33%
    14:00 +31°C° 0 mm 2 mps 667 mmHg 36%
    15:00 +30°C° 0 mm 2 mps 667 mmHg 38%
    16:00 +30°C° 0 mm 2 mps 666 mmHg 41%
    17:00 +27°C° 0 mm 2 mps 666 mmHg 47%
    18:00 +25°C° 0 mm 1 mps 666 mmHg 52%
    19:00 +23°C° 0 mm 1 mps 666 mmHg 58%
    20:00 +23°C° 0 mm 1 mps 666 mmHg 58%
    21:00 +22°C° 0 mm 1 mps 667 mmHg 59%
    22:00 +22°C° 0 mm 1 mps 667 mmHg 60%
    23:00 +21°C° 0 mm 1 mps 667 mmHg 60%

    Day after tomorrow, 30 May, Tuesday

    Time Temperature Precipitation Wind Pressure Humidity
    00:00 +21°C° 0 mm 1 mps 666 mmHg 61%
    01:00 +21°C° 0 mm 1 mps 666 mmHg 61%
    02:00 +20°C° 0 mm 1 mps 666 mmHg 64%
    03:00 +20°C° 0 mm 1 mps 666 mmHg 67%
    04:00 +19°C° 0 mm 1 mps 666 mmHg 70%
    05:00 +20°C° 0 mm 1 mps 666 mmHg 69%
    06:00 +20°C° 0 mm 1 mps 667 mmHg 68%
    07:00 +21°C° 0 mm 1 mps 667 mmHg 67%
    08:00 +24°C° 0 mm 2 mps 668 mmHg 57%
    09:00 +26°C° 0 mm 3 mps 669 mmHg 47%
    10:00 +29°C° 0 mm 4 mps 670 mmHg 37%
    11:00 +30°C° 0 mm 4 mps 669 mmHg 34%
    12:00 +32°C° 0 mm 4 mps 669 mmHg 31%
    13:00 +33°C° 0 mm 4 mps 668 mmHg 28%
    14:00 +33°C° 0 mm 4 mps 668 mmHg 30%
    15:00 +31°C° 0 mm 3 mps 667 mmHg 31%
    16:00 +31°C° 0 mm 3 mps 667 mmHg 33%
    17:00 +28°C° 0 mm 3 mps 666 mmHg 38%
    18:00 +25°C° 0 mm 2 mps 666 mmHg 44%
    19:00 +23°C° 0 mm 2 mps 666 mmHg 50%
    20:00 +22°C° 0 mm 1 mps 666 mmHg 51%
    21:00 +21°C° 0 mm 1 mps 667 mmHg 52%
    22:00 +21°C° 0 mm 1 mps 667 mmHg 54%
    23:00 +21°C° 0 mm 1 mps 667 mmHg 53%

    31 May, Wednesday

    Time Temperature Precipitation Wind Pressure Humidity
    00:00 +20°C° 0 mm 2 mps 667 mmHg 52%
    01:00 +20°C° 0 mm 2 mps 666 mmHg 51%
    02:00 +20°C° 0 mm 2 mps 666 mmHg 52%
    03:00 +20°C° 0 mm 2 mps 666 mmHg 52%
    04:00 +20°C° 0 mm 2 mps 666 mmHg 52%
    05:00 +20°C° 0 mm 2 mps 667 mmHg 54%
    06:00 +20°C° 0 mm 2 mps 667 mmHg 55%
    07:00 +20°C° 0 mm 2 mps 668 mmHg 57%
    08:00 +24°C° 0 mm 3 mps 668 mmHg 50%
    09:00 +26°C° 0 mm 4 mps 669 mmHg 44%
    10:00 +28°C° 0 mm 5 mps 670 mmHg 37%
    11:00 +29°C° 0 mm 5 mps 669 mmHg 35%
    12:00 +30°C° 0 mm 4 mps 669 mmHg 33%
    13:00 +32°C° 0 mm 4 mps 668 mmHg 31%
    14:00 +32°C° 0 mm 4 mps 668 mmHg 31%
    15:00 +31°C° 0 mm 3 mps 667 mmHg 32%
    16:00 +31°C° 0 mm 3 mps 667 mmHg 33%
    17:00 +28°C° 0 mm 2 mps 666 mmHg 39%
    18:00 +25°C° 0 mm 2 mps 666 mmHg 45%
    19:00 +22°C° 0 mm 1 mps 666 mmHg 52%
    20:00 +22°C° 0 mm 1 mps 666 mmHg 52%
    21:00 +21°C° 0 mm 1 mps 666 mmHg 52%
    22:00 +21°C° 0 mm 1 mps 667 mmHg 52%
    23:00 +21°C° 0 mm 1 mps 666 mmHg 52%

    1 June, Thursday

    Time Temperature Precipitation Wind Pressure Humidity
    00:00 +20°C° 0 mm 2 mps 666 mmHg 52%
    01:00 +19°C° 0 mm 2 mps 666 mmHg 52%
    02:00 +19°C° 0 mm 2 mps 666 mmHg 53%
    03:00 +19°C° 0 mm 2 mps 666 mmHg 53%
    04:00 +18°C° 0 mm 2 mps 666 mmHg 53%
    05:00 +18°C° 0 mm 2 mps 667 mmHg 54%
    06:00 +18°C° 0 mm 3 mps 667 mmHg 56%
    07:00 +18°C° 0 mm 3 mps 668 mmHg 57%
    08:00 +20°C° 0 mm 3 mps 668 mmHg 50%
    09:00 +23°C° 0 mm 4 mps 669 mmHg 43%
    10:00 +26°C° 0 mm 5 mps 669 mmHg 37%
    11:00 +28°C° 0 mm 4 mps 669 mmHg 34%
    12:00 +29°C° 0 mm 4 mps 668 mmHg 31%
    13:00 +30°C° 0 mm 4 mps 668 mmHg 28%
    14:00 +30°C° 0 mm 3 mps 667 mmHg 29%
    15:00 +30°C° 0 mm 3 mps 667 mmHg 29%
    16:00 +30°C° 0 mm 2 mps 666 mmHg 29%
    17:00 +27°C° 0 mm 2 mps 666 mmHg 34%
    18:00 +24°C° 0 mm 2 mps 666 mmHg 40%
    19:00 +20°C° 0 mm 2 mps 666 mmHg 45%
    20:00 +20°C° 0 mm 2 mps 666 mmHg 45%
    21:00 +20°C° 0 mm 2 mps 666 mmHg 45%
    22:00 +19°C° 0 mm 2 mps 666 mmHg 44%
    23:00 +19°C° 0 mm 2 mps 666 mmHg 45%

    2 June, Friday

    Time Temperature Precipitation Wind Pressure Humidity
    00:00 +18°C° 0 mm 2 mps 666 mmHg 46%
    01:00 +17°C° 0 mm 2 mps 666 mmHg 47%
    02:00 +17°C° 0 mm 2 mps 666 mmHg 49%
    03:00 +16°C° 0 mm 2 mps 666 mmHg 50%
    04:00 +15°C° 0 mm 2 mps 665 mmHg 51%
    05:00 +16°C° 0 mm 2 mps 666 mmHg 52%
    06:00 +16°C° 0 mm 2 mps 667 mmHg 53%
    07:00 +16°C° 0 mm 2 mps 667 mmHg 53%
    08:00 +19°C° 0 mm 2 mps 668 mmHg 47%
    09:00 +22°C° 0 mm 3 mps 668 mmHg 40%
    10:00 +26°C° 0 mm 3 mps 669 mmHg 33%
    11:00 +28°C° 0 mm 3 mps 669 mmHg 31%
    12:00 +29°C° 0 mm 2 mps 668 mmHg 28%
    13:00 +30°C° 0 mm 2 mps 668 mmHg 25%
    14:00 +30°C° 0 mm 1 mps 667 mmHg 25%
    15:00 +30°C° 0 mm 1 mps 667 mmHg 26%
    16:00 +30°C° 0 mm 1 mps 667 mmHg 26%
    17:00 +26°C° 0 mm 1 mps 666 mmHg 32%
    18:00 +23°C° 0 mm 1 mps 666 mmHg 39%
    19:00 +20°C° 0 mm 1 mps 665 mmHg 45%
    20:00 +19°C° 0 mm 1 mps 665 mmHg 46%
    21:00 +18°C° 0 mm 1 mps 666 mmHg 48%
    22:00 +18°C° 0 mm 1 mps 666 mmHg 49%
    23:00 +18°C° 0 mm 1 mps 666 mmHg 54%
    Show more